Time,TemperatureF,DewpointF,PressureIn,WindDirection,WindDirectionDegrees,WindSpeedMPH,WindSpeedGustMPH,Humidity,HourlyPrecipIn,Conditions,Clouds,dailyrainin,SoftwareType,DateUTC
2013-05-26 00:02:00,43.0,39.0,29.87,NW,313,5.0,5.0,87,0.00,,,0.14,,2013-05-26 04:02:00,
2013-05-26 00:12:00,43.0,39.0,29.87,NW,313,5.0,5.0,87,0.00,,,0.14,,2013-05-26 04:12:00,
2013-05-26 00:23:00,43.0,39.0,29.88,WNW,290,3.0,3.0,87,0.00,,,0.14,,2013-05-26 04:23:00,
2013-05-26 00:33:00,43.0,39.0,29.88,West,270,0.0,6.0,86,0.00,,,0.14,,2013-05-26 04:33:00,
2013-05-26 00:42:00,43.0,39.0,29.88,West,270,0.0,6.0,86,0.00,,,0.14,,2013-05-26 04:42:00,
2013-05-26 00:52:00,43.0,39.0,29.88,WNW,288,1.0,6.0,86,0.00,,,0.14,,2013-05-26 04:52:00,
2013-05-26 01:02:00,44.0,40.0,29.87,WSW,243,1.0,6.0,86,0.00,,,0.14,,2013-05-26 05:02:00,
2013-05-26 01:12:00,44.0,40.0,29.87,WSW,243,1.0,6.0,86,0.00,,,0.14,,2013-05-26 05:12:00,
2013-05-26 01:22:00,44.0,40.0,29.87,WSW,255,0.0,6.0,87,0.00,,,0.14,,2013-05-26 05:22:00,
2013-05-26 01:32:00,44.0,40.0,29.87,WSW,239,3.0,6.0,87,0.00,,,0.14,,2013-05-26 05:32:00,
2013-05-26 01:42:00,44.0,40.0,29.87,WSW,239,3.0,6.0,87,0.00,,,0.14,,2013-05-26 05:42:00,
2013-05-26 01:52:00,44.0,40.0,29.87,WSW,248,0.0,6.0,87,0.00,,,0.14,,2013-05-26 05:52:00,
2013-05-26 02:01:00,44.0,40.0,29.87,WSW,258,0.0,6.0,87,0.00,,,0.14,,2013-05-26 06:01:00,
2013-05-26 02:12:00,44.0,40.0,29.87,WSW,258,0.0,6.0,87,0.00,,,0.14,,2013-05-26 06:12:00,
2013-05-26 02:22:00,44.0,40.0,29.87,WSW,243,6.0,6.0,86,0.00,,,0.14,,2013-05-26 06:22:00,
2013-05-26 02:32:00,44.0,40.0,29.87,West,281,1.0,8.0,87,0.00,,,0.14,,2013-05-26 06:32:00,
2013-05-26 02:42:00,44.0,40.0,29.87,West,281,1.0,8.0,87,0.00,,,0.14,,2013-05-26 06:42:00,
2013-05-26 02:52:00,44.0,40.0,29.87,West,261,13.0,13.0,86,0.00,,,0.14,,2013-05-26 06:52:00,
2013-05-26 03:02:00,44.0,40.0,29.87,West,281,2.0,8.0,86,0.00,,,0.14,,2013-05-26 07:02:00,
2013-05-26 03:11:00,44.0,40.0,29.87,West,281,2.0,8.0,86,0.00,,,0.14,,2013-05-26 07:11:00,
2013-05-26 03:22:00,44.0,40.0,29.87,WNW,300,6.0,8.0,85,0.00,,,0.14,,2013-05-26 07:22:00,
2013-05-26 03:32:00,44.0,40.0,29.86,WNW,283,0.0,4.0,85,0.00,,,0.14,,2013-05-26 07:32:00,
2013-05-26 03:42:00,44.0,40.0,29.86,WNW,283,0.0,4.0,85,0.00,,,0.14,,2013-05-26 07:42:00,
2013-05-26 03:52:00,44.0,40.0,29.86,WNW,283,0.0,4.0,85,0.00,,,0.14,,2013-05-26 07:52:00,
2013-05-26 04:01:00,44.0,40.0,29.86,WSW,256,0.0,4.0,85,0.00,,,0.14,,2013-05-26 08:01:00,
2013-05-26 04:12:00,44.0,40.0,29.86,WSW,256,0.0,4.0,85,0.00,,,0.14,,2013-05-26 08:12:00,
2013-05-26 04:21:00,44.0,40.0,29.86,WSW,258,0.0,4.0,87,0.00,,,0.14,,2013-05-26 08:21:00,
2013-05-26 04:32:00,44.0,40.0,29.87,WSW,238,0.0,6.0,87,0.00,,,0.14,,2013-05-26 08:32:00,
2013-05-26 04:42:00,44.0,40.0,29.87,WSW,238,0.0,6.0,87,0.00,,,0.14,,2013-05-26 08:42:00,
2013-05-26 04:53:00,44.0,40.0,29.87,WSW,251,0.0,6.0,87,0.00,,,0.14,,2013-05-26 08:53:00,
2013-05-26 05:01:00,44.0,40.0,29.87,WSW,241,2.0,6.0,86,0.00,,,0.14,,2013-05-26 09:01:00,
2013-05-26 05:11:00,45.0,41.0,29.87,SW,234,0.0,6.0,86,0.00,,,0.14,,2013-05-26 09:11:00,
2013-05-26 05:21:00,45.0,41.0,29.87,SW,234,0.0,6.0,86,0.00,,,0.14,,2013-05-26 09:21:00,
2013-05-26 05:33:00,44.0,40.0,29.88,SW,235,5.0,5.0,86,0.00,,,0.14,,2013-05-26 09:33:00,
2013-05-26 05:42:00,44.0,40.0,29.88,SW,235,5.0,5.0,86,0.00,,,0.14,,2013-05-26 09:42:00,
2013-05-26 05:52:00,44.0,40.0,29.88,WSW,257,0.0,4.0,87,0.00,,,0.14,,2013-05-26 09:52:00,
2013-05-26 06:03:00,44.0,40.0,29.89,SW,233,3.0,4.0,87,0.00,,,0.14,,2013-05-26 10:03:00,
2013-05-26 06:12:00,44.0,40.0,29.89,SW,233,3.0,4.0,87,0.00,,,0.14,,2013-05-26 10:12:00,
2013-05-26 06:23:00,45.0,41.0,29.89,NW,307,8.0,8.0,85,0.00,,,0.14,,2013-05-26 10:23:00,
2013-05-26 06:33:00,45.0,41.0,29.90,NW,306,2.0,7.0,85,0.00,,,0.14,,2013-05-26 10:33:00,
2013-05-26 06:42:00,45.0,41.0,29.90,NW,306,2.0,7.0,85,0.00,,,0.14,,2013-05-26 10:42:00,
2013-05-26 06:52:00,45.0,41.0,29.90,NW,306,2.0,7.0,85,0.00,,,0.14,,2013-05-26 10:52:00,
2013-05-26 07:03:00,46.0,41.0,29.90,West,267,5.0,7.0,83,0.00,,,0.14,,2013-05-26 11:03:00,
2013-05-26 07:11:00,46.0,41.0,29.90,West,267,5.0,7.0,83,0.00,,,0.14,,2013-05-26 11:11:00,
2013-05-26 07:22:00,46.0,41.0,29.90,West,267,5.0,7.0,83,0.00,,,0.14,,2013-05-26 11:22:00,
2013-05-26 07:32:00,47.0,41.0,29.91,West,262,9.0,9.0,81,0.00,,,0.14,,2013-05-26 11:32:00,
2013-05-26 07:42:00,47.0,41.0,29.91,West,262,9.0,9.0,81,0.00,,,0.14,,2013-05-26 11:42:00,
2013-05-26 07:52:00,48.0,42.0,29.91,West,281,1.0,7.0,79,0.00,,,0.14,,2013-05-26 11:52:00,
2013-05-26 08:02:00,49.0,42.0,29.92,West,281,1.0,7.0,77,0.00,,,0.14,,2013-05-26 12:02:00,
2013-05-26 08:12:00,49.0,42.0,29.92,West,281,1.0,7.0,77,0.00,,,0.14,,2013-05-26 12:12:00,
2013-05-26 08:22:00,49.0,42.0,29.92,West,270,3.0,7.0,77,0.00,,,0.14,,2013-05-26 12:22:00,
2013-05-26 08:32:00,49.0,42.0,29.92,NW,312,6.0,6.0,76,0.00,,,0.14,,2013-05-26 12:32:00,
2013-05-26 08:42:00,49.0,42.0,29.92,NW,312,6.0,6.0,76,0.00,,,0.14,,2013-05-26 12:42:00,
2013-05-26 08:52:00,49.0,42.0,29.92,NW,312,6.0,6.0,76,0.00,,,0.14,,2013-05-26 12:52:00,
2013-05-26 09:02:00,49.0,41.0,29.92,WSW,249,6.0,6.0,75,0.00,,,0.14,,2013-05-26 13:02:00,
2013-05-26 09:11:00,49.0,41.0,29.92,WSW,249,6.0,6.0,75,0.00,,,0.14,,2013-05-26 13:11:00,
2013-05-26 09:22:00,51.0,42.0,29.92,West,270,11.0,11.0,71,0.00,,,0.14,,2013-05-26 13:22:00,
2013-05-26 09:32:00,51.0,42.0,29.93,West,281,8.0,27.0,70,0.00,,,0.14,,2013-05-26 13:32:00,
2013-05-26 09:42:00,53.0,42.0,29.93,West,276,7.0,27.0,66,0.00,,,0.14,,2013-05-26 13:42:00,
2013-05-26 09:52:00,53.0,42.0,29.93,West,276,7.0,27.0,66,0.00,,,0.14,,2013-05-26 13:52:00,
2013-05-26 10:02:00,53.0,42.0,29.93,West,276,7.0,27.0,66,0.00,,,0.14,,2013-05-26 14:02:00,
2013-05-26 10:11:00,53.0,42.0,29.93,West,276,7.0,27.0,66,0.00,,,0.14,,2013-05-26 14:11:00,
2013-05-26 10:21:00,54.0,43.0,29.93,WSW,251,1.0,27.0,65,0.00,,,0.14,,2013-05-26 14:21:00,
2013-05-26 10:32:00,54.0,42.0,29.94,West,280,10.0,10.0,63,0.00,,,0.14,,2013-05-26 14:32:00,
2013-05-26 10:42:00,54.0,41.0,29.95,NNW,335,13.0,13.0,61,0.00,,,0.14,,2013-05-26 14:42:00,
2013-05-26 10:52:00,54.0,41.0,29.95,NNW,335,13.0,13.0,61,0.00,,,0.14,,2013-05-26 14:52:00,
2013-05-26 11:02:00,54.0,41.0,29.95,NNW,335,13.0,13.0,61,0.00,,,0.14,,2013-05-26 15:02:00,
2013-05-26 11:12:00,54.0,41.0,29.95,NNW,335,13.0,13.0,61,0.00,,,0.14,,2013-05-26 15:12:00,
2013-05-26 11:22:00,55.0,43.0,29.95,WNW,297,14.0,14.0,63,0.00,,,0.14,,2013-05-26 15:22:00,
2013-05-26 11:33:00,55.0,43.0,29.95,WNW,297,14.0,14.0,63,0.00,,,0.14,,2013-05-26 15:33:00,
2013-05-26 11:43:00,55.0,41.0,29.96,WNW,298,4.0,16.0,60,0.00,,,0.14,,2013-05-26 15:43:00,
2013-05-26 11:53:00,55.0,41.0,29.96,WNW,298,4.0,16.0,60,0.00,,,0.14,,2013-05-26 15:53:00,
2013-05-26 12:03:00,56.0,42.0,29.96,NW,311,2.0,16.0,59,0.00,,,0.14,,2013-05-26 16:03:00,
2013-05-26 12:12:00,55.0,41.0,29.96,West,278,0.0,16.0,60,0.00,,,0.14,,2013-05-26 16:12:00,
2013-05-26 12:23:00,55.0,41.0,29.96,West,278,0.0,16.0,60,0.00,,,0.14,,2013-05-26 16:23:00,
2013-05-26 12:33:00,56.0,43.0,29.96,SE,141,2.0,14.0,62,0.00,,,0.14,,2013-05-26 16:33:00,
2013-05-26 12:42:00,57.0,43.0,29.96,NW,311,8.0,14.0,59,0.00,,,0.14,,2013-05-26 16:42:00,
2013-05-26 12:52:00,57.0,43.0,29.96,NW,311,8.0,14.0,59,0.00,,,0.14,,2013-05-26 16:52:00,
2013-05-26 13:02:00,57.0,42.0,29.97,NW,314,5.0,14.0,57,0.00,,,0.14,,2013-05-26 17:02:00,
2013-05-26 13:11:00,56.0,43.0,29.98,West,264,13.0,14.0,61,0.00,,,0.14,,2013-05-26 17:11:00,
2013-05-26 13:22:00,56.0,43.0,29.98,West,264,13.0,14.0,61,0.00,,,0.14,,2013-05-26 17:22:00,
2013-05-26 13:32:00,57.0,42.0,29.98,WNW,284,14.0,18.0,58,0.00,,,0.14,,2013-05-26 17:32:00,
2013-05-26 13:42:00,57.0,42.0,29.98,WNW,301,7.0,18.0,58,0.00,,,0.14,,2013-05-26 17:42:00,
2013-05-26 13:52:00,57.0,42.0,29.98,WNW,301,7.0,18.0,58,0.00,,,0.14,,2013-05-26 17:52:00,
2013-05-26 14:01:00,58.0,42.0,29.98,NW,326,12.0,18.0,56,0.00,,,0.14,,2013-05-26 18:01:00,
2013-05-26 14:12:00,58.0,42.0,29.98,NW,326,12.0,18.0,56,0.00,,,0.14,,2013-05-26 18:12:00,
2013-05-26 14:21:00,59.0,43.0,29.98,NW,308,10.0,18.0,56,0.00,,,0.14,,2013-05-26 18:21:00,
2013-05-26 14:32:00,58.0,41.0,29.99,West,265,7.0,21.0,54,0.00,,,0.14,,2013-05-26 18:32:00,
2013-05-26 14:42:00,59.0,42.0,29.99,WNW,296,5.0,21.0,54,0.00,,,0.14,,2013-05-26 18:42:00,
2013-05-26 14:52:00,59.0,42.0,29.99,WNW,296,5.0,21.0,54,0.00,,,0.14,,2013-05-26 18:52:00,
2013-05-26 15:01:00,56.0,45.0,30.00,WNW,293,1.0,21.0,66,0.00,,,0.14,,2013-05-26 19:01:00,
2013-05-26 15:11:00,56.0,45.0,30.00,WNW,293,1.0,21.0,66,0.00,,,0.14,,2013-05-26 19:11:00,
2013-05-26 15:22:00,56.0,42.0,30.00,WNW,299,6.0,21.0,60,0.00,,,0.14,,2013-05-26 19:22:00,
2013-05-26 15:32:00,59.0,43.0,30.00,West,265,1.0,11.0,55,0.00,,,0.14,,2013-05-26 19:32:00,
2013-05-26 15:42:00,57.0,48.0,30.01,WNW,299,5.0,11.0,72,0.00,,,0.14,,2013-05-26 19:42:00,
2013-05-26 15:52:00,57.0,48.0,30.01,WNW,299,5.0,11.0,72,0.00,,,0.14,,2013-05-26 19:52:00,
2013-05-26 16:02:00,58.0,45.0,30.01,NNW,334,4.0,11.0,63,0.00,,,0.14,,2013-05-26 20:02:00,
2013-05-26 16:11:00,58.0,45.0,30.01,NNW,334,4.0,11.0,63,0.00,,,0.14,,2013-05-26 20:11:00,
2013-05-26 16:22:00,60.0,44.0,30.01,WSW,246,6.0,11.0,56,0.00,,,0.14,,2013-05-26 20:22:00,
2013-05-26 16:32:00,60.0,44.0,30.01,WSW,246,6.0,11.0,56,0.00,,,0.14,,2013-05-26 20:32:00,
2013-05-26 16:42:00,58.0,43.0,30.03,NW,326,10.0,10.0,57,0.01,,,0.15,,2013-05-26 20:42:00,
2013-05-26 16:52:00,58.0,43.0,30.03,NW,326,10.0,10.0,57,0.01,,,0.15,,2013-05-26 20:52:00,
2013-05-26 17:02:00,59.0,44.0,30.03,West,277,2.0,7.0,57,0.01,,,0.15,,2013-05-26 21:02:00,
2013-05-26 17:11:00,59.0,44.0,30.03,West,277,2.0,7.0,57,0.01,,,0.15,,2013-05-26 21:11:00,
2013-05-26 17:22:00,60.0,43.0,30.03,NW,317,6.0,7.0,54,0.01,,,0.15,,2013-05-26 21:22:00,
2013-05-26 17:33:00,60.0,43.0,30.03,NW,317,6.0,7.0,54,0.01,,,0.15,,2013-05-26 21:33:00,
2013-05-26 17:43:00,54.0,45.0,30.06,NW,320,6.0,16.0,72,0.00,,,0.15,,2013-05-26 21:43:00,
2013-05-26 17:53:00,54.0,45.0,30.06,NW,320,6.0,16.0,72,0.00,,,0.15,,2013-05-26 21:53:00,
2013-05-26 18:03:00,54.0,45.0,30.06,NW,320,6.0,16.0,72,0.00,,,0.15,,2013-05-26 22:03:00,
2013-05-26 18:12:00,56.0,47.0,30.07,WSW,258,6.0,16.0,72,0.00,,,0.15,,2013-05-26 22:12:00,
2013-05-26 18:23:00,56.0,47.0,30.07,WSW,258,6.0,16.0,72,0.00,,,0.15,,2013-05-26 22:23:00,
2013-05-26 18:33:00,55.0,45.0,30.08,NW,326,6.0,16.0,70,0.02,,,0.17,,2013-05-26 22:33:00,
2013-05-26 18:42:00,55.0,45.0,30.09,NNW,333,0.0,16.0,68,0.02,,,0.17,,2013-05-26 22:42:00,
2013-05-26 18:53:00,55.0,45.0,30.09,NNW,333,0.0,16.0,68,0.02,,,0.17,,2013-05-26 22:53:00,
2013-05-26 19:02:00,55.0,44.0,30.10,WNW,301,5.0,16.0,67,0.02,,,0.17,,2013-05-26 23:02:00,
2013-05-26 19:12:00,55.0,44.0,30.10,WNW,301,5.0,16.0,67,0.02,,,0.17,,2013-05-26 23:12:00,
2013-05-26 19:22:00,55.0,43.0,30.10,NW,306,20.0,20.0,65,0.02,,,0.17,,2013-05-26 23:22:00,
2013-05-26 19:32:00,55.0,42.0,30.11,NW,309,5.0,15.0,62,0.00,,,0.17,,2013-05-26 23:32:00,
2013-05-26 19:43:00,55.0,42.0,30.11,NW,307,3.0,15.0,62,0.00,,,0.17,,2013-05-26 23:43:00,
2013-05-26 19:52:00,55.0,42.0,30.11,NW,307,3.0,15.0,62,0.00,,,0.17,,2013-05-26 23:52:00,
2013-05-26 20:02:00,55.0,42.0,30.11,NW,307,3.0,15.0,62,0.00,,,0.17,,2013-05-27 00:02:00,
2013-05-26 20:11:00,55.0,42.0,30.11,NW,307,3.0,15.0,62,0.00,,,0.17,,2013-05-27 00:11:00,
2013-05-26 20:22:00,54.0,43.0,30.14,NW,326,0.0,15.0,66,0.00,,,0.17,,2013-05-27 00:22:00,
2013-05-26 20:32:00,53.0,42.0,30.14,WNW,303,1.0,4.0,67,0.00,,,0.17,,2013-05-27 00:32:00,
2013-05-26 20:42:00,53.0,42.0,30.14,West,269,0.0,4.0,67,0.00,,,0.17,,2013-05-27 00:42:00,
2013-05-26 20:52:00,53.0,42.0,30.14,West,269,0.0,4.0,67,0.00,,,0.17,,2013-05-27 00:52:00,
2013-05-26 21:01:00,52.0,43.0,30.15,NNW,330,0.0,4.0,70,0.00,,,0.17,,2013-05-27 01:01:00,
2013-05-26 21:11:00,52.0,43.0,30.15,NNW,330,0.0,4.0,70,0.00,,,0.17,,2013-05-27 01:11:00,
2013-05-26 21:22:00,52.0,43.0,30.15,NNW,330,0.0,4.0,70,0.00,,,0.17,,2013-05-27 01:22:00,
2013-05-26 21:32:00,51.0,42.0,30.17,WNW,299,0.0,0.0,72,0.00,,,0.17,,2013-05-27 01:32:00,
2013-05-26 21:42:00,51.0,42.0,30.17,WNW,299,0.0,0.0,72,0.00,,,0.17,,2013-05-27 01:42:00,
2013-05-26 21:52:00,51.0,42.0,30.17,WNW,299,0.0,0.0,72,0.00,,,0.17,,2013-05-27 01:52:00,
2013-05-26 22:02:00,51.0,43.0,30.18,NW,311,0.0,0.0,74,0.00,,,0.17,,2013-05-27 02:02:00,
2013-05-26 22:11:00,51.0,43.0,30.18,NW,311,0.0,0.0,74,0.00,,,0.17,,2013-05-27 02:11:00,
2013-05-26 22:22:00,50.0,43.0,30.19,NW,311,0.0,0.0,76,0.00,,,0.17,,2013-05-27 02:22:00,
2013-05-26 22:32:00,49.0,42.0,30.19,NW,311,0.0,0.0,78,0.00,,,0.17,,2013-05-27 02:32:00,
2013-05-26 22:42:00,47.0,41.0,30.19,NW,311,0.0,0.0,81,0.00,,,0.17,,2013-05-27 02:42:00,
2013-05-26 22:52:00,47.0,41.0,30.19,NW,311,0.0,0.0,81,0.00,,,0.17,,2013-05-27 02:52:00,
2013-05-26 23:02:00,47.0,41.0,30.19,NW,311,0.0,0.0,81,0.00,,,0.17,,2013-05-27 03:02:00,
2013-05-26 23:11:00,47.0,41.0,30.19,NW,311,0.0,0.0,81,0.00,,,0.17,,2013-05-27 03:11:00,
2013-05-26 23:21:00,47.0,41.0,30.19,NW,311,0.0,0.0,81,0.00,,,0.17,,2013-05-27 03:21:00,
2013-05-26 23:33:00,47.0,41.0,30.19,NW,311,0.0,0.0,81,0.00,,,0.17,,2013-05-27 03:33:00,